Miscellaneous Local Product
Issued by NWS Hastings, NE

Home | Current Version | Previous Version | Graphics & Text | Print | Product List | Glossary On
Versions: 1 2 3 4 5 6 7 8 9 10 11 12 13 14 15 16 17 18 19 20 21 22 23 24 25 26 27 28 29 30 31 32 33 34 35 36 37 38 39 40 41 42 43 44 45 46 47 48 49 50
000
AXUS43 KGID 181402
MISGRI

GID CWA HOURLY WEATHER ROUNDUP
NATIONAL WEATHER SERVICE HASTINGS NE
800 AM CST THU DEC 18 2014

NOTE: "FAIR" INDICATES FEW OR NO CLOUDS BELOW 12,000 FEET WITH NO
SIGNIFICANT WEATHER AND/OR OBSTRUCTIONS TO VISIBILITY.

...SOUTH CENTRAL NEBRASKA...

CITY           SKY/WX    TMP DP  RH WIND       PRES   REMARKS
GRAND ISLAND   LGT SNOW  23  21  92 SE5       30.17S FOG     WCI  17
HASTINGS       CLOUDY    24  21  88 SE8       30.15S WCI  15
KEARNEY        CLOUDY    25  21  86 SE5       30.15R WCI  19
ORD            CLOUDY    23  20  88 SE6       30.14R WCI  16
YORK           CLOUDY    25 N/A N/A SE3       30.19S
AURORA         FLURRIES  24  23  94 SE6       30.17F WCI  17
LEXINGTON      CLOUDY    25  23  92 S3        30.13R
HOLDREGE       CLOUDY    24  23  93 CALM      30.13S
HEBRON         LGT SNOW  25  23  92 CALM      30.20R

...NEBRASKA PANHANDLE...

CITY           SKY/WX    TMP DP  RH WIND       PRES   REMARKS
CHADRON        CLEAR      3  -1  83 W7        30.03S WCI  -9
ALLIANCE       CLEAR     -1  -6  79 SW5       30.01R WCI -11
SCOTTSBLUFF    CLOUDY     8   5  87 W5        30.05R FOG     WCI   0
SIDNEY         PTCLDY    16  12  84 NW13      30.01R WCI   2

...WESTERN AND NORTH CENTRAL NEBRASKA...

CITY           SKY/WX    TMP DP  RH WIND       PRES   REMARKS
VALENTINE      CLOUDY    25  21  85 W6        30.07R WCI  18
AINSWORTH      CLOUDY    24  23  96 CALM      30.08S
ONEILL         CLOUDY    23  22  96 CALM      30.15R
BROKEN BOW     CLOUDY    24  22  91 SE5       30.11R FOG     WCI  18
IMPERIAL       CLOUDY    25  23  92 W6        30.07R WCI  18
NORTH PLATTE   CLOUDY    24  22  91 SW6       30.09S WCI  17
MCCOOK         CLOUDY    23  21  92 S5        30.12R WCI  17

...EASTERN NEBRASKA...

CITY           SKY/WX    TMP DP  RH WIND       PRES   REMARKS
NORFOLK        CLOUDY    25  22  88 SE6       30.18F WCI  18
SO SIOUX CITY  CLOUDY    26  21  81 E6        30.24S WCI  19
TEKAMAH        CLOUDY    27  21  78 SE6       30.24S WCI  20
COLUMBUS       PTCLDY    23  18  80 E3        30.21S
ALBION         CLOUDY    23  20  89 SE3       30.18R
OMAHA EPPLEY   LGT SNOW  26  23  88 SE6       30.26R FOG     WCI  19
MILLARD        LGT SNOW  28  23  83 SE5       30.23S WCI  22
LINCOLN        CLOUDY    27  24  89 CALM      30.23S
NEBRASKA CITY  LGT SNOW  27  27 100 E3        30.22S
BEATRICE       CLOUDY    26  24  96 CALM      30.20S
FALLS CITY     FLURRIES  27  24  89 E5        30.23R WCI  22

...NORTHERN KANSAS...

CITY           SKY/WX    TMP DP  RH WIND       PRES   REMARKS
GOODLAND       FOG       20  18  92 W5        30.07R VSB 1/2 WCI  13
HILL CITY      CLOUDY    26  24  92 CALM      30.16R
NORTON         CLOUDY    25  21  86 S3        30.13R
PHILLIPSBURG   CLOUDY    28  28 100 E3        30.17S
SMITH CENTER   CLOUDY    25  21  86 CALM      30.19R
BELOIT         CLOUDY    27  25  93 CALM      30.20R
HAYS           CLOUDY    27  18  69 NE3       30.16R
RUSSELL        CLOUDY    25  25 100 N6        30.16R FOG     WCI  18
CONCORDIA      LGT SNOW  25  24  96 E3        30.19S FOG
SALINA         CLOUDY    28  26  92 NE5       30.20R FOG     WCI  23
TOPEKA         LGT SNOW  30  28  92 E3        30.22S FOG



USA.gov is the U.S. government's official web portal to all federal, state and local government web resources and services.